EZY81E EGNS-EGCC

Flight info

Callsign EZY81E
Flight time 0h 37m
Altitude 15000
Route TIMIS Q39 DANDI DCT PENIL
Aircraft A320/M-SDE3FGHIRWY/LB1

Departure

Time 2026-04-24 19:15
Airport Isle of Man Airport (EGNS)

Arrival

Time 2026-04-24 19:52
Airport Manchester Airport (EGCC)
Time Latitude Longitude Altitude Speed Heading
2026-04-24 19:08 54.08603 -4.63217 40 ft 0 kts 224°
2026-04-24 19:13 54.08609 -4.63207 40 ft 2 kts 218°
2026-04-24 19:13 54.08626 -4.63184 39 ft 2 kts 209°
2026-04-24 19:13 54.08641 -4.63173 39 ft 2 kts 175°
2026-04-24 19:13 54.08656 -4.63181 38 ft 2 kts 136°
2026-04-24 19:14 54.08662 -4.63190 39 ft 0 kts 132°
2026-04-24 19:14 54.08655 -4.63177 38 ft 6 kts 132°
2026-04-24 19:14 54.08596 -4.63073 40 ft 18 kts 148°
2026-04-24 19:14 54.08446 -4.62999 38 ft 28 kts 181°
2026-04-24 19:15 54.08296 -4.62845 38 ft 28 kts 101°
2026-04-24 19:15 54.08380 -4.62016 30 ft 130 kts 78°
2026-04-24 19:15 54.08599 -4.60122 650 ft 181 kts 80°
2026-04-24 19:15 54.08790 -4.57944 1646 ft 208 kts 84°
2026-04-24 19:16 54.08581 -4.51729 2006 ft 291 kts 120°
2026-04-24 19:16 54.07233 -4.49572 2817 ft 276 kts 155°
2026-04-24 19:16 54.05395 -4.48925 4656 ft 266 kts 180°
2026-04-24 19:17 54.03622 -4.49724 6127 ft 272 kts 208°
2026-04-24 19:17 54.02051 -4.51465 7461 ft 276 kts 213°
2026-04-24 19:17 54.00455 -4.53358 8767 ft 282 kts 214°
2026-04-24 19:17 53.99002 -4.55113 9925 ft 288 kts 215°
2026-04-24 19:18 53.97274 -4.56749 11040 ft 295 kts 196°
2026-04-24 19:18 53.95227 -4.56950 12198 ft 299 kts 167°
2026-04-24 19:18 53.93384 -4.55461 13406 ft 302 kts 139°
2026-04-24 19:18 53.92019 -4.52760 14280 ft 320 kts 125°
2026-04-24 19:19 53.90678 -4.49510 14821 ft 346 kts 124°
2026-04-24 19:19 53.89383 -4.46032 15155 ft 365 kts 116°
2026-04-24 19:19 53.88507 -4.42080 15231 ft 383 kts 109°
2026-04-24 19:19 53.87646 -4.37699 15246 ft 401 kts 108°
2026-04-24 19:20 53.86774 -4.33166 15242 ft 405 kts 108°
2026-04-24 19:20 53.85903 -4.28621 15244 ft 405 kts 108°
2026-04-24 19:20 53.85024 -4.24070 15238 ft 405 kts 108°
2026-04-24 19:20 53.84145 -4.19575 15237 ft 405 kts 108°
2026-04-24 19:21 53.83250 -4.15025 15245 ft 407 kts 108°
2026-04-24 19:21 53.82349 -4.10463 15250 ft 408 kts 108°
2026-04-24 19:21 53.81448 -4.05920 15244 ft 408 kts 108°
2026-04-24 19:21 53.80562 -4.01463 15244 ft 407 kts 108°
2026-04-24 19:22 53.79967 -3.98471 15247 ft 407 kts 108°
2026-04-24 19:22 53.78750 -3.92372 15246 ft 407 kts 109°
2026-04-24 19:22 53.77855 -3.87898 15242 ft 408 kts 109°
2026-04-24 19:22 53.76938 -3.83323 15245 ft 408 kts 109°
2026-04-24 19:23 53.76028 -3.78789 15246 ft 408 kts 109°
2026-04-24 19:23 53.75145 -3.74415 15190 ft 393 kts 109°
2026-04-24 19:23 53.74285 -3.70171 14694 ft 382 kts 109°
2026-04-24 19:23 53.73430 -3.65945 14044 ft 377 kts 108°
2026-04-24 19:24 53.72590 -3.61788 13238 ft 375 kts 108°
2026-04-24 19:24 53.71746 -3.57620 12396 ft 374 kts 108°
2026-04-24 19:24 53.70906 -3.53485 11630 ft 371 kts 108°
2026-04-24 19:24 53.70071 -3.49375 10878 ft 368 kts 108°
2026-04-24 19:25 53.69242 -3.45302 10156 ft 364 kts 108°
2026-04-24 19:25 53.68444 -3.41402 9963 ft 343 kts 109°
2026-04-24 19:25 53.67687 -3.37727 9844 ft 324 kts 108°
2026-04-24 19:25 53.66959 -3.34203 9687 ft 307 kts 108°
2026-04-24 19:26 53.66280 -3.30918 9572 ft 293 kts 109°
2026-04-24 19:26 53.65616 -3.27699 9255 ft 285 kts 109°
2026-04-24 19:26 53.64978 -3.24603 8842 ft 283 kts 109°
2026-04-24 19:26 53.64342 -3.21523 8409 ft 280 kts 109°
2026-04-24 19:27 53.63701 -3.18435 7970 ft 278 kts 109°
2026-04-24 19:27 53.63069 -3.15397 7525 ft 276 kts 109°
2026-04-24 19:27 53.62439 -3.12360 7271 ft 273 kts 109°
2026-04-24 19:27 53.61803 -3.09299 7241 ft 277 kts 109°
2026-04-24 19:28 53.61178 -3.06253 7239 ft 278 kts 109°
2026-04-24 19:28 53.60552 -3.03143 7225 ft 279 kts 109°
2026-04-24 19:28 53.59920 -3.00063 7244 ft 279 kts 109°
2026-04-24 19:28 53.59270 -2.96984 7255 ft 279 kts 110°
2026-04-24 19:29 53.57983 -2.90862 7252 ft 279 kts 110°
2026-04-24 19:29 53.57522 -2.87676 7217 ft 279 kts 95°
2026-04-24 19:29 53.57463 -2.84430 7248 ft 279 kts 90°
2026-04-24 19:30 53.57454 -2.81138 7258 ft 279 kts 90°
2026-04-24 19:30 53.57449 -2.77926 7260 ft 279 kts 90°
2026-04-24 19:30 53.57444 -2.74649 7260 ft 279 kts 90°
2026-04-24 19:30 53.57439 -2.71384 7261 ft 279 kts 90°
2026-04-24 19:31 53.57433 -2.68075 7263 ft 279 kts 90°
2026-04-24 19:31 53.57426 -2.64870 7263 ft 279 kts 90°
2026-04-24 19:31 53.57242 -2.61590 7262 ft 279 kts 105°
2026-04-24 19:31 53.56644 -2.58504 7264 ft 279 kts 109°
2026-04-24 19:32 53.55983 -2.55464 7266 ft 280 kts 110°
2026-04-24 19:32 53.55305 -2.52388 7266 ft 280 kts 110°
2026-04-24 19:32 53.54669 -2.49246 7265 ft 281 kts 102°
2026-04-24 19:32 53.54488 -2.46015 7269 ft 280 kts 90°
2026-04-24 19:33 53.54506 -2.42755 7268 ft 280 kts 90°
2026-04-24 19:33 53.54468 -2.39459 7270 ft 280 kts 91°
2026-04-24 19:33 53.54413 -2.36191 7114 ft 277 kts 91°
2026-04-24 19:33 53.54361 -2.32960 6639 ft 276 kts 91°
2026-04-24 19:34 53.54316 -2.29769 6152 ft 273 kts 91°
2026-04-24 19:34 53.54276 -2.26611 5700 ft 270 kts 91°
2026-04-24 19:34 53.54259 -2.23491 5243 ft 267 kts 90°
2026-04-24 19:34 53.54247 -2.20366 4766 ft 264 kts 90°
2026-04-24 19:35 53.54234 -2.17293 4292 ft 262 kts 90°
2026-04-24 19:35 53.54218 -2.14307 4141 ft 247 kts 90°
2026-04-24 19:35 53.54202 -2.11522 3989 ft 234 kts 90°
2026-04-24 19:35 53.54186 -2.08803 3685 ft 229 kts 90°
2026-04-24 19:36 53.54122 -2.06143 3512 ft 228 kts 99°
2026-04-24 19:36 53.53472 -2.03717 3511 ft 233 kts 130°
2026-04-24 19:36 53.52643 -2.02593 3512 ft 235 kts 152°
2026-04-24 19:36 53.50516 -2.01921 3510 ft 236 kts 179°
2026-04-24 19:37 53.49426 -2.01907 3516 ft 231 kts 180°
2026-04-24 19:37 53.47828 -2.01976 3507 ft 220 kts 188°
2026-04-24 19:37 53.46381 -2.02732 3515 ft 217 kts 205°
2026-04-24 19:37 53.44768 -2.04615 3509 ft 214 kts 236°
2026-04-24 19:38 53.44372 -2.06157 3334 ft 215 kts 259°
2026-04-24 19:38 53.44103 -2.08636 2884 ft 211 kts 249°
2026-04-24 19:38 53.43421 -2.10664 2609 ft 188 kts 234°
2026-04-24 19:38 53.42663 -2.12331 2359 ft 172 kts 230°
2026-04-24 19:39 53.41943 -2.13844 2153 ft 165 kts 229°
2026-04-24 19:39 53.41240 -2.15312 1913 ft 157 kts 229°
2026-04-24 19:39 53.40564 -2.16721 1706 ft 153 kts 229°
2026-04-24 19:39 53.39908 -2.18086 1487 ft 151 kts 228°
2026-04-24 19:40 53.39245 -2.19462 1292 ft 150 kts 229°
2026-04-24 19:40 53.38612 -2.20779 1082 ft 142 kts 229°
2026-04-24 19:40 53.37995 -2.22063 882 ft 140 kts 229°
2026-04-24 19:40 53.37390 -2.23309 690 ft 139 kts 230°
2026-04-24 19:41 53.36786 -2.24578 520 ft 138 kts 230°
2026-04-24 19:41 53.36185 -2.25807 334 ft 138 kts 231°
2026-04-24 19:41 53.35605 -2.27008 286 ft 116 kts 229°
2026-04-24 19:41 53.35068 -2.28131 745 ft 141 kts 231°
2026-04-24 19:42 53.34395 -2.29597 1667 ft 172 kts 230°
2026-04-24 19:42 53.33792 -2.31426 2661 ft 198 kts 257°
2026-04-24 19:42 53.34018 -2.33916 3330 ft 245 kts 297°
2026-04-24 19:42 53.35213 -2.35986 3486 ft 254 kts 333°
2026-04-24 19:43 53.36817 -2.36851 3510 ft 231 kts 347°
2026-04-24 19:43 53.38356 -2.37201 3509 ft 224 kts
2026-04-24 19:43 53.39854 -2.36561 3511 ft 223 kts 19°
2026-04-24 19:43 53.41335 -2.35699 3512 ft 222 kts 20°
2026-04-24 19:44 53.42778 -2.34830 3510 ft 223 kts 20°
2026-04-24 19:44 53.44235 -2.33938 3505 ft 223 kts 22°
2026-04-24 19:44 53.45680 -2.32982 3507 ft 222 kts 21°
2026-04-24 19:44 53.47115 -2.32060 3507 ft 223 kts 21°
2026-04-24 19:45 53.48534 -2.30946 3504 ft 222 kts 38°
2026-04-24 19:45 53.49618 -2.29132 3509 ft 222 kts 49°
2026-04-24 19:45 53.50625 -2.27154 3514 ft 222 kts 50°
2026-04-24 19:45 53.51632 -2.25135 3510 ft 227 kts 50°
2026-04-24 19:46 53.52647 -2.23091 3510 ft 228 kts 50°
2026-04-24 19:46 53.53665 -2.21042 3509 ft 228 kts 50°
2026-04-24 19:46 53.54685 -2.18988 3509 ft 228 kts 50°
2026-04-24 19:46 53.55435 -2.16895 3509 ft 228 kts 73°
2026-04-24 19:47 53.55496 -2.14164 3513 ft 228 kts 97°
2026-04-24 19:47 53.55240 -2.11531 3513 ft 229 kts 100°
2026-04-24 19:47 53.54949 -2.08898 3513 ft 229 kts 100°
2026-04-24 19:47 53.54652 -2.06263 3507 ft 230 kts 101°
2026-04-24 19:48 53.53981 -2.03867 3511 ft 233 kts 130°
2026-04-24 19:48 53.52639 -2.02354 3517 ft 236 kts 156°
2026-04-24 19:48 53.49520 -2.00646 3512 ft 237 kts 174°
2026-04-24 19:49 53.46565 -2.02496 3505 ft 233 kts 231°
2026-04-24 19:49 53.45207 -2.07385 3095 ft 230 kts 230°
2026-04-24 19:50 53.42137 -2.13442 2184 ft 225 kts 230°
2026-04-24 19:50 53.41159 -2.15480 1881 ft 224 kts 230°
2026-04-24 19:51 53.39344 -2.19259 1331 ft 187 kts 229°
2026-04-24 19:51 53.38577 -2.20855 1103 ft 168 kts 229°
2026-04-24 19:52 53.37218 -2.23679 655 ft 144 kts 230°
2026-04-24 19:52 53.36596 -2.24980 423 ft 140 kts 229°
2026-04-24 19:52 53.36015 -2.26175 289 ft 125 kts 232°
2026-04-24 19:52 53.35716 -2.26797 268 ft 3 kts 226°
2026-04-24 19:53 53.35649 -2.26905 265 ft 51 kts 224°
2026-04-24 19:53 53.35433 -2.27356 261 ft 48 kts 234°
2026-04-24 19:53 53.35245 -2.28064 239 ft 0 kts 260°
2026-04-24 19:54 53.35240 -2.28102 237 ft 3 kts 259°
2026-04-24 19:54 53.35239 -2.28115 237 ft 7 kts 257°
2026-04-24 19:54 53.35300 -2.28197 237 ft 16 kts 12°
2026-04-24 19:55 53.35390 -2.28167 238 ft 26 kts 350°
2026-04-24 19:55 53.35649 -2.27880 247 ft 42 kts 39°